FW4778 Weather Reports


time (UTC)temp
C
wind
direction
speed
KPH
gust
KPH
rain 1hr
cm
rain 24hr
cm
rain mn
cm
humidity
%
barometer
mb
20190422175238 22 105 3.2 6.4 0.00 0.00 0.00 24 1003.1
20190422174231 23 87 3.2 6.4 0.00 0.00 0.00 22 1003.0
20190422173237 23 103 3.2 12.9 0.00 0.00 0.00 22 1003.0
20190422172225 23 127 3.2 14.5 0.00 0.00 0.00 21 1002.8
20190422171235 23 106 4.8 9.7 0.00 0.00 0.00 21 1002.9
20190422170226 24 101 4.8 11.3 0.00 0.00 0.00 20 1003.0
20190422165230 25 135 8.0 14.5 0.00 0.00 0.00 20 1003.0
20190422164239 25 96 3.2 12.9 0.00 0.00 0.00 22 1003.2
20190422163226 25 103 6.4 16.1 0.00 0.00 0.00 19 1003.3
20190422162239 25 86 8.0 14.5 0.00 0.00 0.00 20 1003.3
20190422161226 25 136 4.8 14.5 0.00 0.00 0.00 21 1003.4
20190422160237 25 59 4.8 12.9 0.00 0.00 0.00 21 1003.6
20190422155233 25 82 4.8 19.3 0.00 0.00 0.00 21 1003.7
20190422154222 25 103 8.0 16.1 0.00 0.00 0.00 21 1003.7
20190422153230 25 102 8.0 16.1 0.00 0.00 0.00 20 1003.9
20190422152237 26 94 6.4 14.5 0.00 0.00 0.00 21 1003.9
20190422151226 25 89 9.7 17.7 0.00 0.00 0.00 19 1004.0
20190422150237 26 111 6.4 19.3 0.00 0.00 0.00 19 1004.3
20190422145225 26 101 6.4 19.3 0.00 0.00 0.00 17 1004.5
20190422144233 26 88 4.8 12.9 0.00 0.00 0.00 21 1004.5
20190422143227 26 65 6.4 16.1 0.00 0.00 0.00 19 1004.6
20190422142237 26 92 3.2 12.9 0.00 0.00 0.00 22 1004.7
20190422141225 26 110 4.8 12.9 0.00 0.00 0.00 22 1004.9
20190422140226 26 119 6.4 16.1 0.00 0.00 0.00 18 1005.0
20190422135224 26 124 6.4 16.1 0.00 0.00 0.00 19 1005.2
20190422134237 26 110 4.8 16.1 0.00 0.00 0.00 24 1005.3
20190422133224 26 108 8.0 16.1 0.00 0.00 0.00 18 1005.6
20190422132233 26 188 6.4 22.5 0.00 0.00 0.00 17 1005.5
20190422131224 26 79 6.4 16.1 0.00 0.00 0.00 20 1005.7
20190422130232 26 117 4.8 14.5 0.00 0.00 0.00 18 1005.9
20190422125229 25 115 9.7 19.3 0.00 0.00 0.00 17 1006.0
20190422124235 26 96 6.4 12.9 0.00 0.00 0.00 19 1006.1
20190422123225 25 84 9.7 19.3 0.00 0.00 0.00 16 1006.2
20190422122234 26 81 9.7 17.7 0.00 0.00 0.00 18 1006.3
20190422121241 25 86 9.7 20.9 0.00 0.00 0.00 17 1006.5
20190422120231 25 88 4.8 20.9 0.00 0.00 0.00 18 1006.6
20190422115244 25 174 6.4 16.1 0.00 0.00 0.00 15 1006.7
20190422114231 25 66 6.4 19.3 0.00 0.00 0.00 21 1006.8
20190422113235 25 119 11.3 25.7 0.00 0.00 0.00 17 1006.9
20190422112243 25 135 9.7 17.7 0.00 0.00 0.00 22 1007.1
20190422111230 25 94 8.0 16.1 0.00 0.00 0.00 21 1007.3
20190422110236 24 121 8.0 14.5 0.00 0.00 0.00 26 1007.4
20190422105225 24 111 6.4 19.3 0.00 0.00 0.00 23 1007.6
20190422104234 23 99 9.7 16.1 0.00 0.00 0.00 26 1007.8
20190422103224 23 126 9.7 19.3 0.00 0.00 0.00 22 1008.0
20190422102223 23 121 6.4 14.5 0.00 0.00 0.00 26 1008.1
20190422101230 23 121 4.8 12.9 0.00 0.00 0.00 23 1008.1
20190422100233 23 146 6.4 20.9 0.00 0.00 0.00 24 1008.3
20190422095242 23 114 6.4 14.5 0.00 0.00 0.00 25 1008.4
20190422094225 23 87 6.4 16.1 0.00 0.00 0.00 25 1008.4
20190422093228 22 101 4.8 12.9 0.00 0.00 0.00 29 1008.5
20190422092229 22 121 1.6 11.3 0.00 0.00 0.00 32 1008.6
20190422091227 22 110 3.2 16.1 0.00 0.00 0.00 31 1008.8
20190422090228 21 82 3.2 12.9 0.00 0.00 0.00 30 1008.9
20190422085234 21 102 6.4 14.5 0.00 0.00 0.00 30 1009.0
20190422084236 20 150 1.6 12.9 0.00 0.00 0.00 33 1009.1
20190422083240 20 78 4.8 9.7 0.00 0.00 0.00 35 1009.1
20190422082228 19 101 1.6 6.4 0.00 0.00 0.00 40 1009.2
20190422081233 18 86 3.2 6.4 0.00 0.00 0.00 40 1009.2
20190422080222 17 67 3.2 6.4 0.00 0.00 0.00 39 1009.2
20190422075233 17 102 1.6 6.4 0.00 0.00 0.00 43 1009.5
20190422074242 17 92 3.2 6.4 0.00 0.00 0.00 43 1009.6
20190422073223 16 90 1.6 6.4 0.00 0.00 0.00 45 1009.5
20190422072239 16 95 3.2 6.4 0.00 0.00 0.00 47 1009.7
20190422071228 15 93 3.2 4.8 0.00 0.00 0.00 46 1009.7
20190422070233 13 119 1.6 6.4 0.00 0.00 0.00 49 1009.8
20190422065240 13 88 1.6 4.8 0.00 0.00 0.00 49 1010.0
20190422064229 13 98 1.6 4.8 0.00 0.00 0.00 50 1010.0
20190422063227 12 104 3.2 6.4 0.00 0.00 0.00 51 1010.1
20190422062229 12 91 1.6 4.8 0.00 0.00 0.00 54 1010.2
20190422061238 11 88 1.6 4.8 0.00 0.00 0.00 57 1010.2
20190422060236 10 90 1.6 3.2 0.00 0.00 0.00 59 1010.2
20190422055234 9 89 1.6 3.2 0.00 0.00 0.00 60 1010.2
20190422054237 9 89 1.6 3.2 0.00 0.00 0.00 61 1010.3
20190422053223 8 89 1.6 3.2 0.00 0.00 0.00 60 1010.4
20190422052237 8 89 1.6 1.6 0.00 0.00 0.00 60 1010.4
20190422051225 8 89 1.6 3.2 0.00 0.00 0.00 60 1010.5
20190422050235 8 89 3.2 4.8 0.00 0.00 0.00 60 1010.5
20190422045236 8 89 1.6 3.2 0.00 0.00 0.00 60 1010.5
20190422044226 8 89 1.6 3.2 0.00 0.00 0.00 59 1010.4
20190422043226 8 89 0.0 1.6 0.00 0.00 0.00 59 1010.4
20190422042240 8 89 0.0 1.6 0.00 0.00 0.00 58 1010.6
20190422041244 8 89 1.6 3.2 0.00 0.00 0.00 58 1010.7
20190422040225 8 89 0.0 1.6 0.00 0.00 0.00 58 1010.7
20190422035222 8 89 1.6 1.6 0.00 0.00 0.00 57 1010.9
20190422034239 9 89 1.6 3.2 0.00 0.00 0.00 56 1010.8
20190422033237 9 90 1.6 1.6 0.00 0.00 0.00 55 1011.0
20190422032238 9 90 1.6 1.6 0.00 0.00 0.00 55 1011.1
20190422031230 9 90 1.6 3.2 0.00 0.00 0.00 55 1011.2
20190422030239 9 90 1.6 3.2 0.00 0.00 0.00 55 1011.3
20190422025224 9 88 1.6 3.2 0.00 0.00 0.00 55 1011.4
20190422024226 9 88 0.0 1.6 0.00 0.00 0.00 55 1011.5
20190422023229 9 88 1.6 3.2 0.00 0.00 0.00 55 1011.6
20190422022231 9 88 1.6 4.8 0.00 0.00 0.00 55 1011.8
20190422021231 9 84 1.6 3.2 0.00 0.00 0.00 55 1011.9
20190422020230 9 77 1.6 1.6 0.00 0.00 0.00 55 1012.0
20190422015243 9 77 0.0 3.2 0.00 0.00 0.00 57 1012.1
20190422014235 9 77 0.0 1.6 0.00 0.00 0.00 55 1012.2
20190422013231 10 77 0.0 0.0 0.00 0.00 0.00 55 1012.3
20190422012240 10 77 0.0 0.0 0.00 0.00 0.00 53 1012.3
20190422011239 10 77 0.0 1.6 0.00 0.00 0.00 52 1012.5
20190422010232 11 77 0.0 0.0 0.00 0.00 0.00 52 1012.6
20190422005238 11 77 0.0 0.0 0.00 0.00 0.00 51 1012.7
20190422004238 11 77 0.0 1.6 0.00 0.00 0.00 50 1012.8
20190422003227 11 77 0.0 1.6 0.00 0.00 0.00 50 1012.9
20190422002233 11 77 0.0 1.6 0.00 0.00 0.00 50 1013.0
20190422001234 11 77 1.6 1.6 0.00 0.00 0.00 50 1013.1
20190422000233 11 77 1.6 3.2 0.00 0.00 0.00 50 1013.3
20190421235239 11 78 1.6 3.2 0.00 0.00 0.00 49 1013.4
20190421234237 11 76 1.6 3.2 0.00 0.00 0.00 49 1013.5
20190421233225 12 76 1.6 1.6 0.00 0.00 0.00 48 1013.8
20190421232242 12 76 0.0 1.6 0.00 0.00 0.00 48 1013.8
20190421231227 12 76 0.0 1.6 0.00 0.00 0.00 46 1013.9
20190421230233 12 76 0.0 1.6 0.00 0.00 0.00 45 1014.0
20190421225227 13 76 0.0 0.0 0.00 0.00 0.00 44 1014.1
20190421224237 13 76 0.0 0.0 0.00 0.00 0.00 44 1014.1
20190421223241 13 76 0.0 3.2 0.00 0.00 0.00 43 1014.2
20190421222222 13 76 1.6 3.2 0.00 0.00 0.00 43 1014.2
20190421221236 13 76 0.0 3.2 0.00 0.00 0.00 42 1014.2
20190421220228 14 76 1.6 4.8 0.00 0.00 0.00 41 1014.3
20190421215236 14 76 1.6 3.2 0.00 0.00 0.00 40 1014.3
20190421214240 14 76 1.6 3.2 0.00 0.00 0.00 39 1014.5
20190421213241 15 76 1.6 3.2 0.00 0.00 0.00 39 1014.5
20190421212223 15 76 1.6 3.2 0.00 0.00 0.00 38 1014.5
20190421211225 15 76 1.6 4.8 0.00 0.00 0.00 38 1014.6
20190421210226 15 80 1.6 3.2 0.00 0.00 0.00 38 1014.7
20190421205231 15 80 0.0 3.2 0.00 0.00 0.00 38 1014.7
20190421204223 15 80 0.0 1.6 0.00 0.00 0.00 38 1014.7
20190421203232 16 80 1.6 4.8 0.00 0.00 0.00 38 1014.8
20190421202223 16 61 1.6 3.2 0.00 0.00 0.00 37 1014.8
20190421201237 16 61 1.6 1.6 0.00 0.00 0.00 37 1014.9
20190421200226 16 61 0.0 3.2 0.00 0.00 0.00 37 1014.9
20190421195234 17 61 0.0 1.6 0.00 0.00 0.00 36 1015.0
20190421194238 17 61 0.0 1.6 0.00 0.00 0.00 35 1015.0
20190421193233 18 61 0.0 1.6 0.00 0.00 0.00 33 1015.0
20190421192223 18 61 0.0 1.6 0.00 0.00 0.00 32 1015.1
20190421191235 18 61 0.0 3.2 0.00 0.00 0.00 31 1015.0
20190421190243 19 61 1.6 3.2 0.00 0.00 0.00 30 1015.0
20190421185254 20 59 1.6 1.6 0.00 0.00 0.00 29 1014.9
20190421184242 20 59 1.6 3.2 0.00 0.00 0.00 28 1014.9
20190421183228 21 59 1.6 3.2 0.00 0.00 0.00 27 1014.9
20190421182239 22 59 1.6 4.8 0.00 0.00 0.00 26 1014.9
20190421181229 23 57 1.6 4.8 0.00 0.00 0.00 26 1014.8
20190421180236 23 61 1.6 4.8 0.00 0.00 0.00 24 1014.9